Regional Weather Roundup
Issued by NWS Mobile, AL

Home | Current Version | Previous Version | Text Only | Print | Product List | Glossary On
Versions: 1 2 3 4 5 6 7 8 9 10 11 12 13 14 15 16 17 18 19 20 21 22 23 24 25 26 27 28
000
ASUS44 KMOB 230612
RWRMOB
REGIONAL WEATHER ROUNDUP
NATIONAL WEATHER SERVICE MOBILE AL
100 AM CDT MON APR 23 2018

NOTE: "FAIR" INDICATES FEW OR NO CLOUDS BELOW 12,000 FEET WITH NO
      SIGNIFICANT WEATHER AND/OR OBSTRUCTIONS TO VISIBILITY.

  * THESE STATIONS ARE PART OF THE UNIVERSITY OF SOUTH ALABAMA
    MESONET AND ARE NOT UNDER NWS OR FAA QUALITY CONTROL.

ALZ061>064-230700-
COASTAL ALABAMA

CITY           SKY/WX    TMP DP  RH WIND       PRES   REMARKS
MOBILE REG APT FAIR      63  61  93 N3        29.93S
6HR MIN TEMP:  63; 6HR MAX TEMP:  72;

BROOKLEY FIELD FAIR      65  63  93 NW6       29.93F
6HR MIN TEMP:  65; 6HR MAX TEMP:  73;

USA CAMPUS*    NOT AVBL
DOG RIVER*     NOT AVBL


CITY           SKY/WX    TMP DP  RH WIND       PRES   REMARKS
GULF SHORES    CLOUDY    68  68 100 SW5       29.91F

$$

ALZ051>060-230700-
INTERIOR SOUTHWEST AND SOUTH CENTRAL ALABAMA

CITY           SKY/WX    TMP DP  RH WIND       PRES   REMARKS
GREENVILLE     CLOUDY    64  60  87 CALM      29.91F
6HR MIN TEMP:  63; 6HR MAX TEMP:  70; 6HR PCP:  0.26;

EVERGREEN      CLOUDY    61  59  93 CALM      29.93S FOG
6HR MIN TEMP:  60; 6HR MAX TEMP:  71; 6HR PCP:  0.12;

ATMORE*          N/A    N/A N/A N/A CALM      30.62S
ANDALUSIA/OPP  MOCLDY    65  62  90 CALM      29.91F
6HR MIN TEMP:  65; 6HR MAX TEMP:  72; 6HR PCP: TRACE;

ANDALUSIA*       N/A     63  63 100 CALM      29.92F
FLORALA APT    CLOUDY    68  65  90 SW5       29.93F
6HR MIN TEMP:  67; 6HR MAX TEMP:  70; 6HR PCP: TRACE;

FLORALA*       NOT AVBL

$$

FLZ001>006-230700-
WESTERN FLORIDA PANHANDLE

CITY           SKY/WX    TMP DP  RH WIND       PRES   REMARKS
PENSACOLA      CLOUDY    70  67  90 W7        29.91F
6HR MIN TEMP:  69; 6HR MAX TEMP:  72;

NAS PENSACOLA  MOCLDY    69  67  93 W5        29.91F
6HR MIN TEMP:  68; 6HR MAX TEMP:  72;

MILTON         NOT AVBL
WHTNG S FIELD  MOCLDY    68  68 100 SW3       29.91F
6HR MIN TEMP:  67; 6HR MAX TEMP:  71;



CITY           SKY/WX    TMP DP  RH WIND       PRES   REMARKS
JAY*           NOT AVBL
DUKE FIELD     CLOUDY    70  68  94 SW6       29.91F
CRESTVIEW      FOG       65  63  93 CALM      29.93F VSB 1/4
6HR MIN TEMP:  64; 6HR MAX TEMP:  70; 6HR PCP:  0.01;

VALPARAISO     MOCLDY    69  69 100 SW3       29.90F
6HR MIN TEMP:  69; 6HR MAX TEMP:  70; 6HR PCP: TRACE;

DESTIN         CLOUDY    72  68  87 CALM      29.91F
6HR MIN TEMP:  72; 6HR MAX TEMP:  73;


$$

MSZ076-079-230700-
INTERIOR SOUTHEAST MISSISSIPPI

CITY           SKY/WX    TMP DP  RH WIND       PRES   REMARKS
LEAKESVILLE*   NOT AVBL
AGRICOLA*        N/A     59  59 100 CALM      29.92S

$$

MARINE OBSERVATIONS

STATION/POSITION TIME  TEMP    WIND        PRES    WAVE
                       AIR SEA DIR/SP/G            HT/PER
                 (UTC) (F)     (DEG/KT/KT) (MB)    (FT/S)
PETIT BOIS ISLND 0542           30/  6/  8   N/A
GRAND BAY        0445   65     360/  4     1014.0S
KATRINA CUT      0530   70     240/  9     1012.9F
CEDAR POINT      0530   70     250/  8       N/A
E DAUPHIN ISLAND 0600   69     240/  5/  8 1012.8F
MIDDLE BAY LIGHT 0530   67      20/  7     1013.2S
USCG MOBILE BAY  0542           10/  4/  4   N/A
STATE DOCKS      0518   66 65              1013.2
MEAHER PARK      0500   67      10/  3     1013.2
WEEKS BAY        0445   69                 1013.0S
FORT MORGAN      0542          240/ 14/ 15   N/A
12 S ORANGE BCH  0550   70     220/ 10/ 12 1012.9F   4/ 7
PENSACOLA BAY    0542          250/  2/  5   N/A
64 S DAUPHIN ISL 0550      73  240/ 12/ 16 1013.8F   4/ 6
67 S FORT MORGAN 0530   70                 1013.5F

$$

SELECTED LOCATIONS ACROSS THE REGION

CITY           SKY/WX    TMP DP  RH WIND       PRES   REMARKS
NEW ORLEANS    FAIR      63  54  72 NW13G23   29.97S
GULFPORT       CLOUDY    65  62  90 W9        29.93R
PASCAGOULA AP  MOCLDY    62  60  93 N3        29.92S
PASCAGOULA*    NOT AVBL
HATTIESBURG    FAIR      61  59  93 W5        29.94F
LAUREL         MOCLDY    59  57  93 W8        29.94S
MERIDIAN       CLOUDY    60  57  89 SW5       29.91S
JACKSON        CLOUDY    57  52  83 SW5       29.92S
MONTGOMERY     CLOUDY    64  62  93 S3        29.92F
TROY           MOCLDY    61  61 100 CALM      29.93F FOG
ASHFORD*         N/A     63  63 100 CALM      29.92F
DOTHAN         CLOUDY    68  65  90 S9        29.96S
PANAMA CITY    CLOUDY    70  68  93 SE6       29.93F

$$





USA.gov is the U.S. government's official web portal to all federal, state and local government web resources and services.